星链-34974 (STARLINK-34974)

导读

STARLINK-34974是美国太空探索技术公司SpaceX星链星座的卫星,于2025年8月14日发射入轨,属于星链低轨互联网星座组网卫星,旨在为全球范围内提供高速宽带互联网服务,尤其覆盖偏远、网络基础设施薄弱地区。作为星链批量部署的卫星之一,它延续了星链星座低轨运行的设计,提升星座服务容量与覆盖密度,助力SpaceX实现全球低轨卫星互联网组网目标。

Basic Information
目录编号:
65221
目录名称:
STARLINK-34974
国际标识:
2025-176Z
轨道中心:
EARTH
卫星名称:
星链-34974
卫星全名:
星链-34974 (STARLINK-34974)
卫星状态:
在轨 (已飞行393 天)
发射日期:
2025-08-14 UTC
国别 :
美国 (US)
星等 :
--
This satellite is enrolled in the Space Conjunction Data Service (SCDS) and the current flight risk assessment level is: No High Risk
Orbit Information
数据来源 国际轨道数据
星历时间: 2026-09-10T23:30:30+0800
17小时前
查看轨道信息
半长轴: 6840.797km
偏心率: 0.0001501
轨道倾角: 53.161°
近地点辐角 58.553°
升交点赤经 9.684°
平近点角 301.562°
近地点: 461.633km
远地点: 463.687km
周期: 93.847分钟
每日圈数: 15.344148
Detailed Information
固有亮度:
5
最大亮度:
2.5
卫星平台:
Starlink V1.0
覆盖范围:
全球
运营商:
太空探索技术公司
运营商所在国:
美国
制造商(研发单位):
太空探索技术公司
制造商所在国:
美国
使用方式:
暂无
Satellite Introduction
Starlink 计划是 SpaceX 推出的全球卫星互联网项目,通过发射低轨道卫星,为全球尤其是偏远地区提供高速、低延迟的互联网服务。自 2019 年起,Starlink 已部署数千颗卫星,旨在缩小全球数字鸿沟,推动互联网普及。该项目还为军事、航空等行业提供通信支持,带来广泛经济效益。
2D Orbit Map
3D Orbit Map
Orbit Altitude Analysis Chart
Orbit Inclination Analysis Chart
Orbit Comprehensive Analysis Chart
View Comprehensive Chart
Conjunction Data List
Event ID Objects TCA Miss Dist (km) Collision Risk Probability Collision Risk Index (CRI) Action
CDM_260912-025706-035106-522121
2026-09-12T
02:57:31+0000
0.301 km
远距离
3.79987E-4 高风险 0.87
CDM_260913-081705-894806-522121
2026-09-13T
08:17:59+0000
0.843 km
远距离
4.166005E-5 中风险 0.67
CDM_260912-113306-035106-522121
2026-09-12T
11:33:22+0000
0.787 km
远距离
3.808996E-5 中风险 0.67
CDM_260913-092605-804206-522121
2026-09-13T
09:26:44+0000
0.885 km
远距离
2.521178E-5 中风险 0.63
CDM_260913-022405-804206-522121
2026-09-13T
02:24:41+0000
1.265 km
极远距离
7.35452E-6 低风险 0.52
CDM_260913-095105-894806-522121
2026-09-13T
09:51:47+0000
2.252 km
极远距离
1.901198E-6 低风险 0.41
CDM_260913-160705-893806-522121
2026-09-13T
16:07:21+0000
2.332 km
极远距离
1.772003E-6 低风险 0.4
CDM_260913-005005-804206-522121
2026-09-13T
00:50:53+0000
2.329 km
极远距离
1.326241E-6 低风险 0.37
CDM_260911-125305-246106-522122
2026-09-11T
12:53:11+0000
2.394 km
极远距离
1.303183E-6 低风险 0.37
CDM_260913-020405-112506-522121
2026-09-13T
02:04:39+0000
2.824 km
极远距离
1.291005E-6 低风险 0.37
Miss Distance Evolution Trend with All Objects
Collision Probability Evolution Trend with All Objects